Regional Weather Roundup
Issued by NWS Upton, NY

Current Version | Previous Version | Text Only | Print | Product List | Glossary On
Versions: 1 2 3 4 5 6 7 8 9 10 11 12 13 14 15 16 17 18 19 20 21 22 23 24 25 26 27 28 29 30 31 32 33 34 35 36 37 38 39 40 41 42 43 44 45 46 47 48 49 50
000 ASUS41 KOKX 281305 RWROKX REGIONAL WEATHER ROUNDUP NATIONAL WEATHER SERVICE NEW YORK NY 800 AM EST WED JAN 28 2015 NOTE: "FAIR" INDICATES FEW OR NO CLOUDS BELOW 12,000 FEET WITH NO SIGNIFICANT WEATHER AND/OR OBSTRUCTIONS TO VISIBILITY. NYZ071-072-176-178-NJZ106-104-281400- NEW YORK CITY METRO AREA CITY SKY/WX TMP DP RH WIND PRES REMARKS CENTRAL PARK CLEAR 18 -2 41 VRB7G21 30.02R WCI 9 LAGUARDIA APRT PTCLDY 19 2 47 NW18G24 30.01R WCI 4 KENNEDY INTL PTCLDY 18 0 45 NW17 30.01R WCI 3 NEWARK/LIBERTY PTCLDY 19 0 43 NW16G25 30.03R WCI 4 BRNX BOT. GARD N/A N/A N/A N/A NW3 29.99R TETERBORO CLEAR 17 -3 41 NW10G18 30.01R WCI 5 $$ NYZ177-179-078>081-281400- LONG ISLAND NEW YORK CITY SKY/WX TMP DP RH WIND PRES REMARKS FARMINGDALE CLEAR 17 3 54 NW6 29.99R WCI 9 ISLIP MOCLDY 18 5 57 N16G35 29.95R WCI 3 SHIRLEY MIX PCPN 17 6 62 N23G33 29.97R WCI -1 WESTHAMPTON PTCLDY 18 7 62 N15G30 29.96R WCI 4 MONTAUK POINT N/A 18 8 65 NW20G26 29.93R WCI 2 $$ NYZ052-065-067-281400- HUDSON VALLEY CITY SKY/WX TMP DP RH WIND PRES REMARKS WHITE PLAINS PTCLDY 15 1 53 NW9 29.95R WCI 3 NEWBURGH PTCLDY 10 1 67 NW6 29.99R WCI 1 MONTGOMERY CLEAR 17 -3 41 NW10 29.99R WCI 5 POUGHKEEPSIE PTCLDY 17 2 51 W13 30.00R WCI 4 ALBANY MOCLDY 11 -2 56 N14 30.08R WCI -5 $$ NJZ001-105-106-008-010-013-015-019>022-104-281400- NEW JERSEY CITY SKY/WX TMP DP RH WIND PRES REMARKS NEWARK/LIBERTY PTCLDY 19 0 43 NW16G25 30.03R WCI 4 TETERBORO CLEAR 17 -3 41 NW10G18 30.01R WCI 5 CALDWELL CLEAR 17 -2 43 N7G18 30.03R WCI 8 MORRISTOWN PTCLDY 18 1 49 NW13G20 30.02R WCI 4 SOMERVILLE FAIR 19 1 45 NW10 30.04R WCI 7 SUSSEX CLEAR 14 0 53 VRB3 30.02R ANDOVER N/A 15 1 53 VRB7 30.03R WCI 5 TRENTON CLEAR 18 -1 43 NW8 30.05R WCI 8 MILLVILLE CLEAR 22 1 40 NW12G23 30.08R WCI 10 ATLANTIC CITY CLEAR 19 2 47 NW14 30.06R WCI 6 WRIGHTSTOWN CLEAR 17 -1 44 W12 30.03R WCI 4 TOMS RIVER CLEAR 16 3 57 NW13 30.04R WCI 2 BELMAR PTCLDY 16 -2 45 NW12 30.00R WCI 3 $$ PAZ047>061-062-071-281400- EASTERN PENNSYLVANIA CITY SKY/WX TMP DP RH WIND PRES REMARKS PHILADELPHIA PTCLDY 20 -1 40 NW16G23 30.10R WCI 6 ALLENTOWN CLEAR 17 0 47 NW9G17 30.08R WCI 6 SCRANTON PTCLDY 12 0 58 NW9 30.09R WCI 0 $$ CTZ002-004>006-009-010-012-RIZ004-006-007-MAZ004-011-015-281400- SOUTHERN NEW ENGLAND IN CT CITY SKY/WX TMP DP RH WIND PRES REMARKS BRADLEY INTL MOCLDY 13 1 59 N6 29.96R WCI 4 HARTFORD CLEAR 14 2 58 N7 29.99R WCI 4 DANBURY CLOUDY 16 0 49 N12G26 29.96R WCI 3 WTRBRY/OXFORD MOCLDY 12 -2 52 N14G21 29.91R WCI -3 BRIDGEPORT PTCLDY 16 4 59 N13G24 29.96R WCI 2 MERIDEN PTCLDY 16 3 56 N12 29.97R WCI 3 NEW HAVEN MOCLDY 17 5 59 N18G25 29.95R WCI 1 CHESTER FAIR 16 5 62 N14 29.93R WCI 1 GROTON CLOUDY 14 3 61 N17 29.93R WCI -3 WILLIMANTIC CLOUDY 14 1 56 NW13 29.94R WCI 0 IN RI CITY SKY/WX TMP DP RH WIND PRES REMARKS PROVIDENCE MOCLDY 13 1 59 NW12 29.90R WCI -1 BLOCK ISLAND CLEAR 16 3 57 NW15G22 29.87R WCI 1 WESTERLY CLOUDY 15 1 53 NW14G20 29.92R WCI 0 IN MA CITY SKY/WX TMP DP RH WIND PRES REMARKS BOSTON CLOUDY 14 4 64 NW10G20 29.90R WCI 1 WORCESTER CLOUDY 9 0 67 NW18G29 29.83R WCI -10 WESTFIELD PTCLDY 13 0 56 NW9 29.96R WCI 1 PROVINCETOWN CLOUDY 21 16 79 NW22G30 29.83R WCI 5 NANTUCKET CLOUDY 19 13 77 NW18G25 29.84R WCI 4 $$ ANZ330-335-338-340-345-350-353-355-281400- COASTAL MARINE OBSERVATIONS STATION/POSITION TIME SKY/WX TEMP WIND PRES VSBY WAVE AIR SEA DIR/SP/G HT/PER (UTC) (F) (DEG/KT/KT) (MB) (MI) (FT/S) NY HARB ENTRANCE 1300 22 40 320/ 21/ 27 1015.2 4/14 4S FIRE IS NOT AVBL 20S FIRE ISLAND 1200 42 1014.1 5/ 5 23SW MTP 1300 N/A 6/ 4 HUDSON CANYON NOT AVBL EXECUTION ROCKS 1300 19 34 290/ 12/ 17 N/A WESTERN LI SOUND 1300 19 320/ 10/ 12 N/A 1 CENTRAL LI SOUND 1300 19 35 330/ 23/ 29 N/A 3/ 4 EASTERN LI SOUND NOT AVBL ROBBINS REEF 1300 18 320/ 21/ 25 1014.9 $$ >>>>>>>>>>>>>>>>>>>>>>>>>>>> KEY <<<<<<<<<<<<<<<<<<<<<<<<<<< > < > SKY/WX - SKY CONDITION/PRESENT WEATHER < > TMP - TEMPERATURE IN FAHRENHEIT < > DP - DEWPOINT IN FAHRENHEIT < > RH - RELATIVE HUMIDITY IN PERCENT < > WIND - DIRECTION AND SPEED IN MPH < > PRES - MEAN SEA LEVEL PRESSURE IN INCHES OF HG < > WCI - WIND CHILL INDEX < > VSB - VISIBILITY IN MILES < > HX - HEAT INDEX < > TC - TEMPERATURE IN CELSIUS < > VRB - VARIABLE WIND DIRECTION < > < >>>>>>>>>>>>>>>>>>>>>>>>>>>> KEY <<<<<<<<<<<<<<<<<<<<<<<<<<<

USA.gov is the U.S. government's official web portal to all federal, state and local government web resources and services.